Location: *
(49.0044°N, 9.5056°E)
Time: 00:33:44
(UTC+00:00)

FREGAT/IRIS - Pass Details

Date: 22 September 2019
Orbit: 347 x 350 km, 97.0° (Epoch: 20 October)

Event Time Altitude Azimuth Distance (km) Brightness Sun altitude
Exits shadow 18:58:29 - 189° (S) 1,401 5.3 -16.5°
Reaches altitude 10° 18:58:41 10° 190° (S) 1,323 5.2 -16.5°
Maximum altitude 19:01:20 38° 261° (W) 557 3.8 -17.0°
Drops below altitude 10° 19:04:03 10° 333° (NNW) 1,338 6.0 -17.4°
Sets 19:06:03 0° 341° (NNW) 2,190 7.0 -17.7°
